contact:dominique.lefevre@mio.osupytheas.fr, maurice.libes@osupytheas.fr, didier.mallarino@osupytheas.fr
Project:EMSO http://www.emso-fr.org/EMSO-France
Depth: 2436.0 m
Title:EMSO Ligure Ouest : Data MII capteur AQUADOPP
Date,Latitude,Longitude,X_East,Y_North,Z_Up,Amplitude_X,Amplitude_Y,Amplitude_Z,Batterie,SoundSpeed,Heading,Pitch,Roll,Pressure,TIS,Speed,Direction
, degrees North, degrees East, m.s-1, m.s-1,m.s-1, 1, 1, 1, Volt, m.s-1, degree, degree, degree, dbar, degree_C, m.s-1, degree
2022-07-22T00:04:03,42.805,6.029,0.032,-0.014,-0.017,102.0,103.0,101.0,13.4,1505.2,324.0,-0.8,1.8,2470.955,13.28,0.034,113.6
2022-07-22T00:07:03,42.805,6.029,0.038,-0.006,-0.015,102.0,102.0,101.0,13.3,1505.2,318.8,-0.8,1.8,2470.958,13.28,0.038,99.0
2022-07-22T00:10:03,42.805,6.029,0.054,-0.021,-0.018,104.0,102.0,99.0,13.3,1505.2,329.3,-0.8,1.8,2470.958,13.28,0.057,111.2
2022-07-22T00:13:03,42.805,6.029,0.05,0.001,-0.021,103.0,103.0,101.0,13.4,1505.2,320.0,-0.8,1.8,2470.982,13.28,0.05,88.9
2022-07-22T00:16:03,42.805,6.029,0.046,-0.03,-0.039,104.0,101.0,101.0,13.4,1505.2,329.5,-0.7,1.8,2470.964,13.28,0.054,123.1
2022-07-22T00:19:03,42.805,6.029,0.051,-0.007,-0.015,103.0,101.0,102.0,13.3,1505.2,324.3,-0.7,1.8,2470.979,13.28,0.051,97.8
2022-07-22T00:22:03,42.805,6.029,0.045,0.0,-0.005,102.0,102.0,101.0,13.3,1505.2,326.1,-0.8,1.8,2470.937,13.28,0.045,90.0
2022-07-22T00:25:03,42.805,6.029,0.023,-0.004,-0.026,103.0,103.0,101.0,13.3,1505.2,329.2,-0.7,1.8,2470.938,13.28,0.023,99.9
2022-07-22T00:28:03,42.805,6.029,0.057,-0.011,-0.016,102.0,102.0,100.0,13.4,1505.2,327.6,-0.8,1.8,2470.931,13.28,0.058,100.9
2022-07-22T00:31:03,42.805,6.029,0.04,-0.013,-0.017,102.0,102.0,101.0,13.3,1505.2,321.5,-0.8,1.8,2470.945,13.28,0.042,108.0
2022-07-22T00:34:03,42.805,6.029,0.047,0.0,-0.028,103.0,103.0,100.0,13.3,1505.2,323.0,-0.7,1.8,2470.949,13.28,0.047,90.0
2022-07-22T00:37:03,42.805,6.029,0.019,0.002,-0.038,104.0,103.0,101.0,13.4,1505.2,323.3,-0.8,1.8,2470.943,13.28,0.019,84.0
2022-07-22T00:40:03,42.805,6.029,0.041,-0.006,-0.017,102.0,104.0,101.0,13.4,1505.2,323.3,-0.7,1.8,2470.946,13.28,0.041,98.3
2022-07-22T00:43:03,42.805,6.029,0.043,-0.014,-0.011,104.0,104.0,101.0,13.4,1505.2,331.2,-0.7,1.8,2470.94,13.28,0.045,108.0
2022-07-22T00:46:03,42.805,6.029,0.029,0.001,-0.022,104.0,102.0,101.0,13.3,1505.2,328.4,-0.7,1.8,2470.956,13.28,0.029,88.0
2022-07-22T00:49:03,42.805,6.029,0.013,-0.017,-0.038,103.0,102.0,100.0,13.3,1505.2,330.7,-0.7,1.8,2470.963,13.28,0.021,142.6
2022-07-22T00:52:03,42.805,6.029,0.042,-0.009,-0.028,104.0,102.0,101.0,13.4,1505.2,320.6,-0.8,1.8,2470.959,13.28,0.042,102.1
2022-07-22T00:55:03,42.805,6.029,0.042,-0.013,-0.002,103.0,104.0,101.0,13.4,1505.2,331.1,-0.8,1.8,2470.977,13.28,0.043,107.2
2022-07-22T00:58:03,42.805,6.029,0.044,-0.016,-0.002,103.0,103.0,101.0,13.4,1505.2,327.8,-0.8,1.8,2470.982,13.28,0.046,110.0
2022-07-22T01:04:03,42.805,6.029,0.023,-0.018,-0.014,104.0,104.0,103.0,13.3,1505.2,319.4,-0.8,1.8,2471.034,13.28,0.029,128.0
2022-07-22T01:07:03,42.805,6.029,0.033,-0.019,-0.029,103.0,103.0,101.0,13.4,1505.2,327.2,-0.7,1.8,2470.972,13.28,0.038,119.9
2022-07-22T01:10:03,42.805,6.029,0.045,-0.006,-0.01,103.0,102.0,101.0,13.4,1505.2,320.6,-0.8,1.8,2470.983,13.28,0.045,97.6
2022-07-22T01:13:03,42.805,6.029,0.044,-0.006,-0.007,102.0,102.0,101.0,13.3,1505.2,330.2,-0.8,1.8,2471.004,13.28,0.044,97.8
2022-07-22T01:16:03,42.805,6.029,0.038,-0.003,-0.061,103.0,102.0,100.0,13.4,1505.2,325.8,-0.7,1.8,2470.952,13.28,0.038,94.5
2022-07-22T01:19:03,42.805,6.029,0.042,-0.034,-0.014,103.0,103.0,101.0,13.4,1505.2,328.7,-0.7,1.8,2470.953,13.28,0.054,129.0
2022-07-22T01:22:03,42.805,6.029,0.037,-0.018,-0.054,103.0,103.0,101.0,13.4,1505.2,320.8,-0.7,1.8,2470.955,13.28,0.041,115.9
2022-07-22T01:25:03,42.805,6.029,0.025,-0.006,-0.006,102.0,102.0,100.0,13.3,1505.2,324.6,-0.8,1.9,2470.951,13.28,0.025,103.5
2022-07-22T01:28:03,42.805,6.029,0.054,-0.022,-0.001,102.0,103.0,100.0,13.3,1505.2,324.2,-0.8,1.8,2470.966,13.28,0.058,112.2
2022-07-22T01:31:03,42.805,6.029,0.027,0.01,-0.009,102.0,102.0,100.0,13.3,1505.2,326.1,-0.7,1.8,2470.927,13.28,0.028,69.7
2022-07-22T01:34:03,42.805,6.029,0.038,0.004,0.0,103.0,104.0,100.0,13.4,1505.2,326.0,-0.7,1.8,2470.939,13.28,0.038,84.0
2022-07-22T01:37:03,42.805,6.029,0.039,0.004,0.001,103.0,104.0,100.0,13.4,1505.2,326.6,-0.8,1.8,2470.967,13.28,0.039,84.1
2022-07-22T01:40:03,42.805,6.029,0.055,-0.015,-0.031,103.0,102.0,101.0,13.3,1505.2,324.7,-0.7,1.8,2470.956,13.28,0.057,105.3
2022-07-22T01:43:03,42.805,6.029,0.07,-0.007,-0.016,102.0,103.0,100.0,13.4,1505.2,320.1,-0.7,1.8,2470.943,13.28,0.07,95.7
2022-07-22T01:46:03,42.805,6.029,0.042,-0.005,-0.027,103.0,102.0,100.0,13.3,1505.2,326.4,-0.7,1.8,2470.975,13.28,0.042,96.8
2022-07-22T01:49:03,42.805,6.029,0.051,0.002,-0.002,103.0,103.0,100.0,13.4,1505.2,324.7,-0.8,1.8,2470.947,13.28,0.051,87.8
2022-07-22T01:52:03,42.805,6.029,0.04,-0.015,-0.017,103.0,103.0,101.0,13.4,1505.2,331.9,-0.8,1.8,2470.953,13.28,0.042,110.6
2022-07-22T01:55:03,42.805,6.029,0.043,-0.015,0.021,103.0,103.0,101.0,13.4,1505.2,330.0,-0.7,1.9,2470.931,13.28,0.045,109.2
2022-07-22T01:58:03,42.805,6.029,0.029,0.02,-0.027,103.0,102.0,101.0,13.4,1505.2,324.0,-0.8,1.8,2470.952,13.28,0.035,55.4
2022-07-22T02:04:03,42.805,6.029,0.048,-0.02,-0.016,103.0,103.0,101.0,13.4,1505.2,330.8,-0.8,1.8,2471.002,13.28,0.052,112.6
2022-07-22T02:07:03,42.805,6.029,0.012,-0.005,0.007,103.0,103.0,102.0,13.3,1505.2,325.1,-0.8,1.8,2471.015,13.28,0.013,112.6
2022-07-22T02:10:03,42.805,6.029,0.024,-0.01,-0.02,102.0,102.0,101.0,13.3,1505.2,323.6,-0.8,1.8,2470.973,13.28,0.026,112.6
2022-07-22T02:13:03,42.805,6.029,0.017,0.012,-0.03,102.0,103.0,101.0,13.4,1505.2,332.4,-0.8,1.8,2471.022,13.28,0.02,54.8
2022-07-22T02:16:03,42.805,6.029,0.04,-0.009,-0.004,103.0,102.0,101.0,13.4,1505.2,328.5,-0.8,1.8,2470.987,13.28,0.041,102.7
2022-07-22T02:19:03,42.805,6.029,0.039,-0.019,-0.006,103.0,102.0,101.0,13.4,1505.2,331.1,-0.8,1.8,2470.993,13.28,0.043,116.0
2022-07-22T02:22:03,42.805,6.029,0.049,-0.013,-0.029,103.0,102.0,100.0,13.3,1505.2,325.8,-0.8,1.8,2470.962,13.28,0.05,104.9
2022-07-22T02:25:03,42.805,6.029,0.044,-0.005,-0.014,104.0,101.0,100.0,13.4,1505.2,326.7,-0.7,1.8,2470.968,13.28,0.044,96.5
2022-07-22T02:28:03,42.805,6.029,0.044,0.003,-0.001,102.0,103.0,101.0,13.4,1505.2,321.8,-0.7,1.8,2470.948,13.28,0.044,86.1
2022-07-22T02:31:03,42.805,6.029,0.033,-0.01,-0.044,103.0,103.0,101.0,13.4,1505.2,322.2,-0.8,1.8,2470.986,13.28,0.034,106.9
2022-07-22T02:34:03,42.805,6.029,0.056,-0.014,-0.038,102.0,102.0,100.0,13.3,1505.2,323.3,-0.7,1.9,2470.979,13.28,0.057,104.0
2022-07-22T02:37:03,42.805,6.029,0.054,-0.005,-0.01,103.0,103.0,101.0,13.4,1505.2,329.3,-0.8,1.8,2470.952,13.28,0.054,95.3
2022-07-22T02:40:03,42.805,6.029,0.049,-0.021,-0.027,102.0,103.0,101.0,13.4,1505.2,329.8,-0.7,1.8,2470.956,13.28,0.053,113.2
2022-07-22T02:43:03,42.805,6.029,0.055,-0.018,-0.016,103.0,102.0,100.0,13.4,1505.2,328.9,-0.8,1.8,2470.929,13.28,0.057,108.1
2022-07-22T02:46:03,42.805,6.029,0.033,-0.032,-0.052,103.0,103.0,100.0,13.4,1505.2,330.8,-0.7,1.9,2470.939,13.28,0.045,134.1
2022-07-22T02:49:03,42.805,6.029,0.035,-0.004,-0.031,102.0,103.0,101.0,13.4,1505.2,320.5,-0.7,1.8,2470.929,13.28,0.035,96.5
2022-07-22T02:52:03,42.805,6.029,0.036,-0.019,0.001,103.0,104.0,100.0,13.4,1505.2,323.6,-0.8,1.8,2470.944,13.28,0.04,117.8
2022-07-22T02:55:03,42.805,6.029,0.043,-0.003,-0.012,103.0,103.0,101.0,13.4,1505.2,325.0,-0.7,1.8,2470.936,13.28,0.043,94.0
2022-07-22T02:58:03,42.805,6.029,0.054,-0.012,-0.028,103.0,103.0,101.0,13.4,1505.2,332.6,-0.8,1.8,2470.973,13.28,0.055,102.5
2022-07-22T03:04:02,42.805,6.029,0.051,-0.024,-0.009,102.0,103.0,101.0,13.3,1505.2,329.8,-0.7,1.8,2471.014,13.28,0.056,115.2
2022-07-22T03:07:03,42.805,6.029,0.055,-0.015,-0.046,103.0,102.0,101.0,13.4,1505.2,327.4,-0.8,1.9,2471.008,13.28,0.057,105.3
2022-07-22T03:10:02,42.805,6.029,0.041,-0.012,-0.059,103.0,103.0,100.0,13.3,1505.2,321.4,-0.8,1.8,2470.99,13.28,0.042,106.3
2022-07-22T03:13:02,42.805,6.029,0.037,-0.017,0.004,102.0,104.0,100.0,13.4,1505.2,321.6,-0.7,1.8,2471.004,13.28,0.04,114.7
2022-07-22T03:16:02,42.805,6.029,0.029,0.001,-0.035,103.0,104.0,100.0,13.4,1505.2,321.1,-0.8,1.8,2470.973,13.28,0.029,88.0
2022-07-22T03:19:02,42.805,6.029,0.037,-0.007,-0.02,102.0,103.0,101.0,13.4,1505.2,321.5,-0.8,1.8,2471.001,13.28,0.037,100.7
2022-07-22T03:22:02,42.805,6.029,0.025,-0.002,-0.009,102.0,103.0,102.0,13.4,1505.2,329.2,-0.8,1.8,2470.944,13.28,0.025,94.6
2022-07-22T03:25:02,42.805,6.029,0.052,-0.005,-0.039,104.0,101.0,100.0,13.3,1505.2,320.3,-0.8,1.8,2470.941,13.28,0.052,95.5
2022-07-22T03:28:02,42.805,6.029,0.035,0.0,0.001,103.0,103.0,101.0,13.4,1505.2,323.6,-0.7,1.8,2470.945,13.28,0.035,90.0
2022-07-22T03:31:02,42.805,6.029,0.033,0.0,-0.015,102.0,103.0,101.0,13.4,1505.2,332.9,-0.8,1.8,2470.913,13.28,0.033,90.0
2022-07-22T03:34:02,42.805,6.029,0.039,0.0,-0.016,103.0,103.0,100.0,13.3,1505.2,333.6,-0.8,1.8,2470.935,13.28,0.039,90.0
2022-07-22T03:37:02,42.805,6.029,0.036,-0.005,-0.012,103.0,103.0,100.0,13.3,1505.2,326.7,-0.8,1.8,2470.932,13.28,0.036,97.9
2022-07-22T03:40:02,42.805,6.029,0.049,0.001,-0.027,103.0,104.0,100.0,13.4,1505.2,328.8,-0.7,1.8,2470.922,13.28,0.049,88.8
2022-07-22T03:43:03,42.805,6.029,0.046,0.002,-0.012,103.0,103.0,101.0,13.4,1505.2,318.9,-0.8,1.9,2470.958,13.28,0.046,87.5
2022-07-22T03:46:02,42.805,6.029,0.045,-0.01,-0.046,103.0,102.0,101.0,13.3,1505.2,326.1,-0.8,1.8,2470.942,13.28,0.046,102.5
2022-07-22T03:49:02,42.805,6.029,0.043,-0.008,-0.017,103.0,102.0,101.0,13.4,1505.2,325.3,-0.7,1.8,2470.962,13.28,0.043,100.5
2022-07-22T03:52:02,42.805,6.029,0.018,-0.012,-0.043,103.0,103.0,101.0,13.4,1505.2,322.9,-0.8,1.8,2470.903,13.28,0.021,123.7
2022-07-22T03:55:02,42.805,6.029,0.031,-0.009,-0.03,103.0,102.0,101.0,13.3,1505.2,327.2,-0.8,1.8,2470.944,13.28,0.032,106.2
2022-07-22T03:58:02,42.805,6.029,0.039,-0.003,-0.004,103.0,103.0,101.0,13.4,1505.2,328.3,-0.8,1.8,2470.897,13.28,0.039,94.4
2022-07-22T04:04:02,42.805,6.029,0.057,-0.006,-0.032,103.0,104.0,99.0,13.4,1505.2,319.1,-0.8,1.8,2471.004,13.28,0.057,96.0
2022-07-22T04:07:02,42.805,6.029,0.045,-0.013,-0.045,103.0,103.0,101.0,13.4,1505.2,323.6,-0.7,1.8,2470.979,13.28,0.046,106.1
2022-07-22T04:10:02,42.805,6.029,0.056,-0.029,-0.038,102.0,103.0,101.0,13.4,1505.2,330.1,-0.7,1.8,2470.953,13.28,0.063,117.4
2022-07-22T04:13:03,42.805,6.029,0.052,-0.033,-0.019,103.0,101.0,101.0,13.4,1505.2,331.9,-0.8,1.8,2470.942,13.28,0.061,122.4
2022-07-22T04:16:03,42.805,6.029,0.046,0.003,0.013,102.0,104.0,101.0,13.3,1505.2,323.1,-0.8,1.8,2470.967,13.28,0.046,86.3
2022-07-22T04:19:03,42.805,6.029,0.044,-0.002,-0.022,104.0,103.0,101.0,13.3,1505.2,329.9,-0.8,1.8,2470.944,13.28,0.044,92.6
2022-07-22T04:22:02,42.805,6.029,0.031,-0.011,-0.016,103.0,102.0,100.0,13.4,1505.2,332.9,-0.7,1.8,2470.955,13.28,0.032,109.5
2022-07-22T04:25:03,42.805,6.029,-0.003,-0.011,-0.034,102.0,103.0,101.0,13.3,1505.2,321.4,-0.7,1.8,2470.928,13.28,0.011,195.3
2022-07-22T04:28:02,42.805,6.029,0.042,-0.002,-0.022,103.0,104.0,101.0,13.3,1505.2,328.9,-0.7,1.8,2470.901,13.28,0.042,92.7
2022-07-22T04:31:03,42.805,6.029,0.034,0.006,-0.026,103.0,103.0,100.0,13.4,1505.2,323.4,-0.8,1.8,2470.944,13.28,0.034,80.0
2022-07-22T04:34:03,42.805,6.029,0.028,-0.009,-0.02,103.0,103.0,101.0,13.4,1505.2,323.9,-0.8,1.8,2470.914,13.28,0.029,107.8
2022-07-22T04:37:02,42.805,6.029,0.028,-0.019,-0.03,103.0,103.0,101.0,13.4,1505.2,331.6,-0.8,1.8,2470.908,13.28,0.033,124.2
2022-07-22T04:40:03,42.805,6.029,0.031,-0.001,-0.021,102.0,103.0,101.0,13.4,1505.2,325.2,-0.8,1.8,2470.895,13.28,0.031,91.8
2022-07-22T04:43:03,42.805,6.029,0.026,-0.012,-0.013,104.0,104.0,101.0,13.4,1505.2,332.4,-0.7,1.8,2470.885,13.28,0.028,114.8
2022-07-22T04:46:02,42.805,6.029,0.039,-0.006,-0.034,103.0,103.0,102.0,13.4,1505.2,322.8,-0.7,1.8,2470.925,13.28,0.039,98.7
2022-07-22T04:49:03,42.805,6.029,0.021,-0.01,-0.035,104.0,102.0,102.0,13.4,1505.2,324.5,-0.8,1.8,2470.916,13.28,0.023,115.5
2022-07-22T04:52:02,42.805,6.029,0.063,-0.025,-0.032,101.0,102.0,102.0,13.3,1505.2,324.7,-0.8,1.8,2470.909,13.28,0.067,111.6
2022-07-22T04:55:03,42.805,6.029,0.028,0.015,-0.009,102.0,102.0,101.0,13.3,1505.2,320.8,-0.8,1.8,2470.936,13.28,0.031,61.8
2022-07-22T04:58:03,42.805,6.029,0.054,-0.005,-0.031,102.0,103.0,100.0,13.4,1505.2,322.2,-0.8,1.8,2470.905,13.28,0.054,95.3
2022-07-22T05:04:02,42.805,6.029,0.049,0.0,-0.021,102.0,103.0,101.0,13.4,1505.2,320.8,-0.8,1.8,2470.942,13.28,0.049,90.0
2022-07-22T05:07:02,42.805,6.029,0.058,-0.018,-0.03,102.0,103.0,101.0,13.4,1505.2,329.3,-0.7,1.8,2470.955,13.28,0.06,107.2
2022-07-22T05:10:03,42.805,6.029,0.049,-0.022,-0.017,103.0,102.0,101.0,13.4,1505.2,332.6,-0.8,1.8,2470.921,13.28,0.053,114.2
2022-07-22T05:13:03,42.805,6.029,0.044,0.0,-0.033,102.0,103.0,100.0,13.4,1505.2,318.8,-0.7,1.8,2470.958,13.28,0.044,90.0
2022-07-22T05:16:03,42.805,6.029,0.03,-0.008,-0.04,102.0,102.0,101.0,13.4,1505.2,329.5,-0.8,1.8,2470.897,13.28,0.031,104.9
2022-07-22T05:19:03,42.805,6.029,0.061,-0.009,-0.002,102.0,102.0,100.0,13.4,1505.2,328.3,-0.8,1.8,2470.946,13.28,0.061,98.4
2022-07-22T05:22:02,42.805,6.029,0.049,-0.007,-0.016,103.0,103.0,100.0,13.4,1505.2,327.0,-0.8,1.8,2470.899,13.28,0.049,98.1
2022-07-22T05:25:03,42.805,6.029,0.054,-0.015,-0.034,103.0,103.0,100.0,13.4,1505.2,327.8,-0.8,1.8,2470.912,13.28,0.056,105.5
2022-07-22T05:28:03,42.805,6.029,0.063,0.0,-0.019,103.0,103.0,100.0,13.3,1505.2,321.1,-0.7,1.8,2470.911,13.28,0.062,90.0
2022-07-22T05:31:03,42.805,6.029,0.032,0.013,0.027,104.0,102.0,100.0,13.4,1505.2,323.2,-0.7,1.8,2470.919,13.28,0.034,67.9
2022-07-22T05:34:03,42.805,6.029,0.068,-0.015,-0.028,102.0,103.0,101.0,13.3,1505.2,329.5,-0.8,1.8,2470.903,13.28,0.069,102.4
2022-07-22T05:37:02,42.805,6.029,0.045,-0.005,-0.018,103.0,103.0,101.0,13.4,1505.2,321.8,-0.8,1.8,2470.903,13.28,0.045,96.3
2022-07-22T05:40:03,42.805,6.029,0.045,-0.002,-0.027,101.0,102.0,101.0,13.3,1505.2,323.5,-0.8,1.8,2470.882,13.28,0.045,92.5
2022-07-22T05:43:03,42.805,6.029,0.039,-0.006,-0.017,102.0,101.0,101.0,13.4,1505.2,328.1,-0.8,1.8,2470.898,13.28,0.039,98.7
2022-07-22T05:46:03,42.805,6.029,0.017,0.011,-0.012,102.0,102.0,101.0,13.4,1505.2,319.4,-0.8,1.8,2470.888,13.28,0.02,57.1
2022-07-22T05:49:03,42.805,6.029,0.03,-0.002,-0.027,102.0,103.0,101.0,13.4,1505.2,323.3,-0.8,1.9,2470.907,13.28,0.03,93.8
2022-07-22T05:52:02,42.805,6.029,0.026,-0.001,-0.027,103.0,103.0,99.0,13.4,1505.2,324.8,-0.8,1.9,2470.882,13.28,0.026,92.2
2022-07-22T05:55:03,42.805,6.029,0.048,-0.012,-0.044,101.0,104.0,99.0,13.3,1505.2,331.1,-0.7,1.8,2470.96,13.28,0.049,104.0
2022-07-22T05:58:03,42.805,6.029,0.022,-0.016,-0.053,103.0,102.0,101.0,13.3,1505.2,327.0,-0.8,1.8,2470.882,13.28,0.027,126.0
2022-07-22T06:04:02,42.805,6.029,0.046,-0.003,-0.047,101.0,103.0,101.0,13.4,1505.2,329.3,-0.8,1.8,2470.956,13.28,0.046,93.7
2022-07-22T06:07:02,42.805,6.029,0.032,-0.006,-0.021,103.0,101.0,99.0,13.3,1505.2,322.6,-0.8,1.8,2470.916,13.28,0.032,100.6
2022-07-22T06:10:03,42.805,6.029,0.017,-0.015,-0.054,103.0,102.0,100.0,13.4,1505.2,326.7,-0.7,1.8,2470.914,13.28,0.022,131.4
2022-07-22T06:13:03,42.805,6.029,0.041,-0.013,-0.019,103.0,102.0,100.0,13.4,1505.2,333.4,-0.8,1.9,2470.936,13.28,0.043,107.6
2022-07-22T06:16:03,42.805,6.029,0.041,0.003,-0.01,102.0,102.0,100.0,13.3,1505.2,324.1,-0.8,1.8,2470.905,13.28,0.041,85.8
2022-07-22T06:19:03,42.805,6.029,0.028,0.008,-0.033,102.0,103.0,101.0,13.4,1505.2,324.7,-0.7,1.8,2470.882,13.28,0.029,74.1
2022-07-22T06:22:02,42.805,6.029,0.033,-0.007,-0.033,103.0,102.0,101.0,13.4,1505.2,323.6,-0.8,1.8,2470.901,13.28,0.033,102.0
2022-07-22T06:25:03,42.805,6.029,0.044,0.001,-0.006,101.0,102.0,101.0,13.4,1505.2,328.3,-0.7,1.8,2470.903,13.28,0.044,88.7
2022-07-22T06:28:03,42.805,6.029,0.026,0.007,-0.003,103.0,103.0,100.0,13.4,1505.2,328.1,-0.8,1.8,2470.899,13.28,0.026,74.9
2022-07-22T06:31:03,42.805,6.029,0.036,0.005,-0.011,102.0,103.0,100.0,13.3,1505.2,329.7,-0.8,1.8,2470.901,13.28,0.036,82.1
2022-07-22T06:34:03,42.805,6.029,0.047,-0.003,-0.01,102.0,102.0,101.0,13.4,1505.2,321.4,-0.7,1.8,2470.906,13.28,0.047,93.6
2022-07-22T06:37:02,42.805,6.029,0.044,-0.011,-0.016,103.0,104.0,99.0,13.4,1505.2,329.5,-0.8,1.8,2470.87,13.28,0.045,104.0
2022-07-22T06:40:03,42.805,6.029,0.034,-0.02,-0.027,102.0,104.0,101.0,13.3,1505.2,332.6,-0.8,1.8,2470.89,13.28,0.039,120.5
2022-07-22T06:43:03,42.805,6.029,0.047,-0.004,-0.011,101.0,104.0,102.0,13.3,1505.2,332.4,-0.7,1.9,2470.921,13.28,0.047,94.9
2022-07-22T06:46:03,42.805,6.029,0.036,-0.001,-0.023,102.0,102.0,101.0,13.3,1505.2,320.8,-0.7,1.8,2470.89,13.28,0.036,91.6
2022-07-22T06:49:03,42.805,6.029,0.04,-0.008,-0.01,102.0,102.0,100.0,13.4,1505.2,326.3,-0.7,1.8,2470.846,13.28,0.04,101.3
2022-07-22T06:52:02,42.805,6.029,0.053,-0.026,-0.019,102.0,103.0,100.0,13.4,1505.2,332.2,-0.7,1.8,2470.894,13.28,0.059,116.1
2022-07-22T06:55:03,42.805,6.029,0.028,0.0,-0.027,103.0,103.0,101.0,13.3,1505.2,321.7,-0.8,1.8,2470.87,13.28,0.028,90.0
2022-07-22T06:58:03,42.805,6.029,0.042,0.009,0.008,102.0,105.0,102.0,13.4,1505.2,322.4,-0.8,1.8,2470.867,13.28,0.042,77.9
2022-07-22T07:04:02,42.805,6.029,0.044,-0.038,-0.025,102.0,103.0,100.0,13.4,1505.2,333.9,-0.8,1.8,2470.891,13.28,0.058,130.8
2022-07-22T07:07:03,42.805,6.029,0.022,-0.006,-0.033,103.0,103.0,100.0,13.4,1505.2,318.9,-0.8,1.8,2470.912,13.28,0.022,105.3
2022-07-22T07:10:03,42.805,6.029,0.03,0.005,-0.002,102.0,104.0,100.0,13.4,1505.2,320.8,-0.8,1.8,2470.921,13.28,0.03,80.5
2022-07-22T07:13:03,42.805,6.029,0.055,-0.001,0.018,103.0,102.0,100.0,13.4,1505.2,321.8,-0.8,1.8,2470.882,13.28,0.055,91.0
2022-07-22T07:16:03,42.805,6.029,0.035,-0.005,-0.029,103.0,103.0,100.0,13.4,1505.2,332.9,-0.8,1.8,2470.887,13.28,0.035,98.1
2022-07-22T07:19:03,42.805,6.029,0.06,-0.025,-0.071,103.0,102.0,101.0,13.4,1505.2,325.1,-0.7,1.9,2470.889,13.28,0.064,112.6
2022-07-22T07:22:02,42.805,6.029,0.038,-0.004,-0.013,103.0,102.0,100.0,13.4,1505.2,319.1,-0.8,1.8,2470.886,13.28,0.038,96.0
2022-07-22T07:25:03,42.805,6.029,0.041,0.003,0.002,103.0,101.0,100.0,13.4,1505.2,324.5,-0.7,1.8,2470.839,13.28,0.041,85.8
2022-07-22T07:28:03,42.805,6.029,0.043,-0.004,0.0,103.0,103.0,101.0,13.4,1505.2,329.9,-0.7,1.8,2470.872,13.28,0.043,95.3
2022-07-22T07:31:03,42.805,6.029,0.022,-0.006,-0.041,102.0,102.0,102.0,13.4,1505.2,325.8,-0.8,1.8,2470.845,13.28,0.022,105.3
2022-07-22T07:34:03,42.805,6.029,0.008,0.002,-0.042,103.0,103.0,101.0,13.4,1505.2,318.8,-0.8,1.8,2470.867,13.28,0.008,76.0
2022-07-22T07:37:02,42.805,6.029,0.042,-0.006,0.002,103.0,103.0,100.0,13.3,1505.2,324.7,-0.8,1.8,2470.874,13.28,0.042,98.1
2022-07-22T07:40:03,42.805,6.029,0.054,-0.018,-0.011,102.0,103.0,101.0,13.4,1505.2,329.2,-0.7,1.8,2470.886,13.28,0.056,108.4
2022-07-22T07:43:03,42.805,6.029,0.04,-0.017,-0.023,103.0,103.0,100.0,13.4,1505.2,327.6,-0.8,1.8,2470.863,13.28,0.043,113.0
2022-07-22T07:46:03,42.805,6.029,0.044,-0.025,-0.053,102.0,102.0,101.0,13.4,1505.2,329.6,-0.8,1.8,2470.848,13.28,0.05,119.6
2022-07-22T07:49:03,42.805,6.029,0.086,-0.002,-0.022,102.0,103.0,100.0,13.4,1505.2,320.2,-0.8,1.8,2470.873,13.28,0.086,91.3
2022-07-22T07:52:02,42.805,6.029,0.05,0.021,0.002,101.0,102.0,102.0,13.4,1505.2,327.6,-0.8,1.8,2470.838,13.28,0.054,67.2
2022-07-22T07:55:03,42.805,6.029,0.059,-0.01,-0.015,102.0,103.0,101.0,13.4,1505.2,324.1,-0.8,1.8,2470.837,13.28,0.059,99.6
2022-07-22T07:58:03,42.805,6.029,0.045,-0.007,-0.027,102.0,102.0,100.0,13.4,1505.2,324.8,-0.8,1.8,2470.855,13.28,0.045,98.8
2022-07-22T08:04:02,42.805,6.029,0.045,-0.012,-0.029,102.0,103.0,101.0,13.3,1505.2,327.1,-0.8,1.8,2470.901,13.28,0.046,104.9
2022-07-22T08:07:03,42.805,6.029,0.008,-0.002,-0.005,102.0,102.0,101.0,13.4,1505.2,324.4,-0.8,1.8,2470.897,13.28,0.008,104.0
2022-07-22T08:10:03,42.805,6.029,0.04,-0.006,-0.048,102.0,102.0,100.0,13.3,1505.2,327.0,-0.8,1.9,2470.872,13.28,0.04,98.5
2022-07-22T08:13:03,42.805,6.029,0.05,0.014,-0.01,102.0,103.0,101.0,13.4,1505.2,319.1,-0.7,1.8,2470.87,13.28,0.051,74.4
2022-07-22T08:16:03,42.805,6.029,0.072,-0.029,-0.026,102.0,102.0,101.0,13.3,1505.2,333.4,-0.8,1.8,2470.882,13.28,0.077,111.9
2022-07-22T08:19:03,42.805,6.029,0.033,-0.007,-0.03,103.0,103.0,100.0,13.3,1505.2,318.6,-0.8,1.8,2470.892,13.28,0.033,102.0
2022-07-22T08:22:02,42.805,6.029,0.033,-0.005,-0.04,102.0,102.0,101.0,13.4,1505.2,327.5,-0.7,1.8,2470.858,13.28,0.033,98.6
2022-07-22T08:25:03,42.805,6.029,0.03,0.006,-0.021,102.0,102.0,100.0,13.3,1505.2,327.5,-0.7,1.8,2470.838,13.28,0.03,78.7
2022-07-22T08:28:03,42.805,6.029,0.074,-0.009,-0.037,103.0,102.0,101.0,13.4,1505.2,327.2,-0.8,1.8,2470.841,13.28,0.074,96.9
2022-07-22T08:31:03,42.805,6.029,0.049,0.003,-0.064,103.0,101.0,100.0,13.3,1505.2,322.9,-0.7,1.8,2470.841,13.28,0.049,86.5
2022-07-22T08:34:03,42.805,6.029,0.06,0.018,-0.017,102.0,102.0,101.0,13.4,1505.2,320.9,-0.8,1.8,2470.891,13.28,0.062,73.3
2022-07-22T08:37:03,42.805,6.029,0.053,-0.008,0.004,103.0,103.0,101.0,13.4,1505.2,330.8,-0.7,1.8,2470.852,13.28,0.053,98.6
2022-07-22T08:40:03,42.805,6.029,0.05,0.005,-0.024,103.0,102.0,101.0,13.3,1505.2,328.7,-0.8,1.8,2470.826,13.28,0.05,84.3
2022-07-22T08:43:03,42.805,6.029,0.056,-0.025,-0.038,103.0,103.0,100.0,13.4,1505.2,332.7,-0.7,1.8,2470.845,13.28,0.061,114.1
2022-07-22T08:46:03,42.805,6.029,0.033,0.009,-0.016,102.0,103.0,100.0,13.3,1505.2,319.8,-0.7,1.8,2470.841,13.28,0.034,74.7
2022-07-22T08:49:03,42.805,6.029,0.024,-0.027,-0.029,102.0,102.0,101.0,13.3,1505.2,332.6,-0.7,1.8,2470.878,13.28,0.036,138.4
2022-07-22T08:52:03,42.805,6.029,0.026,-0.009,-0.017,103.0,102.0,101.0,13.4,1505.2,318.9,-0.8,1.8,2470.84,13.28,0.027,109.1
2022-07-22T08:55:03,42.805,6.029,0.02,0.009,-0.016,102.0,103.0,101.0,13.4,1505.2,325.0,-0.8,1.8,2470.814,13.28,0.021,65.8
2022-07-22T08:58:03,42.805,6.029,0.051,-0.023,-0.012,103.0,104.0,99.0,13.4,1505.2,326.3,-0.8,1.8,2470.859,13.28,0.055,114.3
2022-07-22T09:04:02,42.805,6.029,0.049,0.019,-0.024,101.0,103.0,101.0,13.4,1505.2,324.2,-0.8,1.8,2470.924,13.28,0.052,68.8
2022-07-22T09:07:03,42.805,6.029,0.053,0.004,-0.027,104.0,103.0,100.0,13.3,1505.2,324.4,-0.8,1.8,2470.885,13.28,0.053,85.7
2022-07-22T09:10:03,42.805,6.029,0.033,0.005,-0.024,104.0,103.0,101.0,13.3,1505.2,321.1,-0.7,1.8,2470.867,13.28,0.033,81.4
2022-07-22T09:13:03,42.805,6.029,0.009,0.0,-0.025,101.0,102.0,101.0,13.4,1505.2,322.5,-0.7,1.8,2470.836,13.28,0.009,90.0
2022-07-22T09:16:03,42.805,6.029,0.052,-0.011,-0.004,102.0,103.0,101.0,13.4,1505.2,333.6,-0.7,1.8,2470.877,13.28,0.053,101.9
2022-07-22T09:19:03,42.805,6.029,0.026,0.002,-0.022,103.0,104.0,101.0,13.4,1505.2,320.0,-0.8,1.8,2470.834,13.28,0.026,85.6
2022-07-22T09:22:03,42.805,6.029,0.045,0.004,-0.005,102.0,107.0,100.0,13.3,1505.2,330.0,-0.8,1.8,2470.876,13.28,0.045,84.9
2022-07-22T09:25:03,42.805,6.029,0.041,-0.002,-0.022,104.0,103.0,100.0,13.4,1505.2,324.3,-0.8,1.8,2470.842,13.28,0.041,92.8
2022-07-22T09:28:03,42.805,6.029,0.044,0.013,-0.007,103.0,104.0,100.0,13.4,1505.2,322.3,-0.7,1.8,2470.847,13.28,0.045,73.5
2022-07-22T09:31:03,42.805,6.029,0.026,-0.01,-0.016,103.0,103.0,101.0,13.4,1505.2,329.6,-0.8,1.8,2470.844,13.28,0.027,111.0
2022-07-22T09:34:03,42.805,6.029,0.038,-0.007,-0.026,104.0,102.0,101.0,13.3,1505.2,322.5,-0.8,1.8,2470.828,13.28,0.038,100.4
2022-07-22T09:37:03,42.805,6.029,0.044,0.008,-0.017,102.0,102.0,102.0,13.4,1505.2,320.3,-0.8,1.8,2470.845,13.28,0.044,79.7
2022-07-22T09:40:03,42.805,6.029,0.027,0.008,-0.02,103.0,102.0,101.0,13.4,1505.2,324.3,-0.8,1.8,2470.848,13.28,0.028,73.5
2022-07-22T09:43:03,42.805,6.029,0.042,0.0,-0.015,102.0,103.0,100.0,13.4,1505.2,329.3,-0.8,1.8,2470.879,13.28,0.042,90.0
2022-07-22T09:46:03,42.805,6.029,0.068,0.006,-0.06,103.0,102.0,101.0,13.4,1505.2,320.2,-0.7,1.9,2470.853,13.28,0.068,85.0
2022-07-22T09:49:03,42.805,6.029,0.049,0.014,-0.021,102.0,103.0,101.0,13.4,1505.2,323.3,-0.7,1.8,2470.869,13.28,0.05,74.1
2022-07-22T09:52:03,42.805,6.029,0.033,-0.011,-0.054,102.0,103.0,101.0,13.4,1505.2,319.9,-0.7,1.8,2470.819,13.28,0.034,108.4
2022-07-22T09:55:03,42.805,6.029,0.044,0.001,0.002,103.0,101.0,101.0,13.3,1505.2,324.7,-0.7,1.8,2470.83,13.28,0.044,88.7
2022-07-22T09:58:03,42.805,6.029,0.03,0.003,-0.011,101.0,103.0,101.0,13.4,1505.2,329.1,-0.7,1.8,2470.855,13.28,0.03,84.3